Regional Weather Roundup
Issued by NWS Nashville, TN

Home | Current Version | Previous Version | Text Only | Print | Product List | Glossary On
Versions: 1 2 3 4 5 6 7 8 9 10 11 12 13 14 15 16 17 18 19 20 21 22 23 24 25 26 27 28 29 30 31 32 33 34 35 36 37 38 39 40 41 42 43 44 45 46 47 48 49 50
000
ASUS44 KOHX 231705
RWROHX
MIDDLE TENNESSEE HOURLY WEATHER ROUNDUP
NATIONAL WEATHER SERVICE NASHVILLE TN
1200 PM CDT TUE SEP 23 2014

NOTE: "FAIR" INDICATES FEW OR NO CLOUDS BELOW 12,000 FEET WITH
NO SIGNIFICANT WEATHER AND/OR OBSTRUCTIONS TO VISIBILITY.

* THESE REPORTS ARE NOT UNDER NWS QUALITY CONTROL AND MAY NOT
  REPORT WEATHER SUCH AS PRECIPITATION AND FOG.


TNZ005>011-023>034-057-059-062>066-078-080-231800
...NORTHERN MIDDLE TENNESSEE...

CITY           SKY/WX    TMP DP  RH WIND       PRES   REMARKS
CLARKSVILLE    SUNNY     71  46  40 E8        30.29S
CROSSVILLE     SUNNY     69  47  45 E6        30.30R
NASHVILLE      MOSUNNY   72  50  45 VRB7      30.28F
SMYRNA         SUNNY     73  48  41 N7        30.28F
SPARTA         SUNNY     72  54  53 CALM      30.28S
$$
TNZ056-058-060-061-075>077-079-093>097-231800
...SOUTHERN MIDDLE TENNESSEE...

CITY           SKY/WX    TMP DP  RH WIND       PRES   REMARKS
COLUMBIA       SUNNY     73  54  49 NE10      30.24F
FAYETTEVILLE   SUNNY     72  54  53 NE8G62    30.25S
MCMINNVILLE    SUNNY     70  55  60 N3        30.27S
SHELBYVILLE    SUNNY     75  54  46 VRB5      30.27S
TULLAHOMA      MOSUNNY   72  54  53 CALM      30.27S
WINCHESTER     MOSUNNY   75  55  50 VRB3      30.25S
$$


...KEY TO REMARKS...
VSB - VISIBILITY IN MILES
WCI - WIND CHILL INDEX
HX  - HEAT INDEX




USA.gov is the U.S. government's official web portal to all federal, state and local government web resources and services.